Location: Bittkow
(50.3000°N, 19.0000°E)
Time: 22:18:39
(UTC+00:00)

PSLV R/B - Pass Details

Date: 19 September 2020
Orbit: 593 x 630 km, 97.9° (Epoch: 20 October)

Event Time Altitude Azimuth Distance (km) Brightness Sun altitude
Rises 02:26:02 0° 18° (NNE) 2,863 7.7 -19.2°
Reaches altitude 10° 02:28:18 10° 24° (NNE) 1,950 6.8 -18.9°
Maximum altitude 02:32:23 47° 99° (E) 795 4.4 -18.3°
Drops below altitude 10° 02:36:25 10° 174° (S) 1,924 5.9 -17.7°
Enters shadow 02:37:17 - 177° (S) 2,272 6.2 -17.6°
